Regional Weather Roundup
Issued by NWS

Home | Current Version | Previous Version | Graphics & Text | Print | Product List | Glossary On
Versions: 1 2 3 4 5 6 7 8 9 10 11 12 13 14 15 16 17 18 19 20 21 22 23 24 25 26 27 28 29 30 31 32 33 34 35 36 37 38 39 40 41 42 43 44 45 46 47 48 49 50
000
ASUS43 KLOT 280300
RWRIL

ILLINOIS REGIONAL WEATHER ROUNDUP
NATIONAL WEATHER SERVICE CHICAGO/ROMEOVILLE IL
1000 PM CDT SUN JUL 27 2014

NOTE: "FAIR" INDICATES FEW OR NO CLOUDS BELOW 12,000 FEET WITH NO
SIGNIFICANT WEATHER AND/OR OBSTRUCTIONS TO VISIBILITY.

* THESE STATIONS ARE NOT UNDER NWS QUALITY CONTROL. THEY ALSO MAY NOT
  REPORT WEATHER SUCH AS PRECIPITATION OR FOG.

ILZ001-002-007-009-015-016-024-280400-
NORTHWEST ILLINOIS

CITY           SKY/WX    TMP DP  RH WIND       PRES   REMARKS
MOLINE         CLEAR     71  59  65 NW14G20   29.95R
STERLING*      CLEAR     68  57  68 NW9       29.93R
$$

ILZ003-004-008-010-011-017-018-280400-
NORTH CENTRAL ILLINOIS

CITY           SKY/WX    TMP DP  RH WIND       PRES   REMARKS
ROCKFORD       CLEAR     68  59  73 N13       29.94R
$$

ILZ005-006-012>014-019>023-280400-
NORTHEAST ILLINOIS

CITY           SKY/WX    TMP DP  RH WIND       PRES   REMARKS
CHICAGO-OHARE  MOCLDY    68  61  78 N15       29.87R
CHICAGO-MIDWAY MOCLDY    69  63  81 NW9       29.86R
AURORA         PTCLDY    66  57  72 NW5       29.88R
WAUKEGAN       CLOUDY    63  60  90 N8        29.89R
DUPAGE AIRPORT CLOUDY    69  60  73 NW12      29.88R
WHEELING       CLOUDY    66  60  81 N14       29.91R
NORTHERLY ISL    N/A     65  60  84 N15         N/A
$$

LMZ740>746-280400-
SOUTHERN LAKE MICHIGAN

STATION/POSITION SKY/WX   TEMP    WIND        PRES    VSBY  WAVE
                          AIR SEA DIR/SP/G                  HT/PER
                          (F)     (DEG/KT/KT) (MB)    (MI)  (FT/S)
SOUTHERN BUOY              62 62  340/ 23/ 27 1009.5R         3/ 4
WAUKEGAN HARBOR            63     360/ 18/ 21   N/A
HARRISON CRIB              64     340/ 17/ 20   N/A
BURNHAM HARBOR             66     360/ 14/ 20   N/A
CALUMET HARBOR             65     330/  6/  8 1010.0R
BURNS HARBOR               68     350/ 15/ 19 1011.5R
MICHIGAN CITY              67     340/ 21/ 24   N/A
MICHIGAN CITY 6N           66 69  350/ 19/ 25   N/A           5/ 5
ST. JOSEPH                 63 64  340/ 17/ 25   N/A           6/ 5
$$

ILZ025>027-034>036-040-047-049-050-058-095>099-280400-
WEST-CENTRAL ILLINOIS

CITY           SKY/WX    TMP DP  RH WIND       PRES   REMARKS
QUINCY         CLEAR     67  58  72 NW8       30.02R
$$

ILZ028>032-037-038-041>044-048-051>054-059>061-280400-
CENTRAL ILLINOIS

CITY           SKY/WX    TMP DP  RH WIND       PRES   REMARKS
DECATUR        CLEAR     71  59  65 NW10      29.94R
PEORIA         CLEAR     71  58  63 W8        29.95R
SPRINGFIELD    CLEAR     70  60  70 NW8       29.97R
TAYLORVILLE    NOT AVBL
$$

ILZ033-039-045-046-055>057-062-063-280400-
EAST-CENTRAL ILLINOIS

CITY           SKY/WX    TMP DP  RH WIND       PRES   REMARKS
CHAMPAIGN      CLEAR     64  60  87 W9        29.92R
MATTOON        CLEAR     66  59  78 W10       29.92R
$$

ILZ079-100>102-280400-
SOUTHWEST ILLINOIS

CITY           SKY/WX    TMP DP  RH WIND       PRES   REMARKS
BELLEVILLE     CLEAR     75  61  62 W8        29.96R
CAHOKIA*       CLEAR     77  58  51 NW14      29.97R
$$

ILZ064>066-069>071-074>076-080>082-084>086-088>090-092>094-280400-
SOUTH-CENTRAL ILLINOIS

CITY           SKY/WX    TMP DP  RH WIND       PRES   REMARKS
CARBONDALE     CLEAR     75  59  57 N8        29.93R
MT. VERNON     CLEAR     75  57  53 CALM      29.95R
$$

ILZ067-068-072-073-078-083-087-091-280400-
SOUTHEAST ILLINOIS

CITY           SKY/WX    TMP DP  RH WIND       PRES   REMARKS
LAWRENCEVILLE  CLEAR     74  59  59 NW14      29.91R
$$

ABBREVIATIONS USED IN REMARKS
   TC - TEMPERATURE IN CELSIUS
  WCI - WIND CHILL INDEX
   HX - HEAT INDEX
  VSB - VISIBILITY
$$



USA.gov is the U.S. government's official web portal to all federal, state and local government web resources and services.